Regional Weather Roundup
Issued by NWS

Home | Current Version | Previous Version | Graphics & Text | Print | Product List | Glossary On
Versions: 1 2 3 4 5 6 7 8 9 10 11 12 13 14 15 16 17 18 19 20 21 22 23 24 25 26 27 28
000
ASUS45 KTFX 070410
RWRMT
MONTANA REGIONAL WEATHER ROUNDUP
NATIONAL WEATHER SERVICE GREAT FALLS MT
900 PM MST TUE DEC 06 2016

NOTE: "FAIR" INDICATES FEW OR NO CLOUDS BELOW 12000 FEET WITH NO
SIGNIFICANT WEATHER AND/OR OBSTRUCTIONS TO VISIBILITY.

MTZ001>007-043-070500-
WEST OF THE DIVIDE

CITY           SKY/WX    TMP DP  RH WIND       PRES   REMARKS
KALISPELL      CLEAR      8  -3  61 N20G25    30.18R WCI -11
MISSOULA       CLOUDY    14   1  56 SE20      30.15R WCI  -3
BUTTE          CLOUDY     2  -3  80 NW10      29.97R HAZE    WCI -14
MULLAN PASS    LGT SNOW   7   3  84 CALM      29.90R FOG
ANACONDA         N/A      0  -6  78 CALM      30.05R
DEER LODGE       N/A      1  -8  66 NW10      30.09R WCI -14
EUREKA           N/A      1  -2  85 CALM      30.23R
HAMILTON         N/A     12   1  62 N7        30.09R WCI   2
LIBBY            N/A     19  12  73 CALM      30.17R
PLAINS           N/A     22   7  52 N5        30.15R
RONAN            N/A     18   9  68 CALM      30.14R
THOMPSON FALLS   N/A     23  11  60 NE6       30.19R WCI  16
$$

MTZ008-052>055-070500-
SOUTHWEST MONTANA

CITY           SKY/WX    TMP DP  RH WIND       PRES   REMARKS
BOZEMAN        CLOUDY     6   0  76 NW9       30.07R WCI  -8
DILLON         CLOUDY     6   0  76 NE14      29.96R WCI -11
W YELLOWSTONE  LGT SNOW   0  -2  92 W3        29.82R
ENNIS          CLOUDY     3  -2  78 N7        30.02R HAZE    WCI  -9
$$

MTZ009-010-012-014-046-048-049-054-070500-
EAST SLOPES AND CENTRAL MONTANA

CITY           SKY/WX    TMP DP  RH WIND       PRES   REMARKS
CUT BANK       CLOUDY    -4 -10  75 NW14      30.24R WCI -24
GREAT FALLS    CLOUDY    -1  -8  72 NW8       30.26R WCI -15
MALMSTROM AFB  FLURRIES   0  -6  75 W7        30.29R WCI -13
HELENA         CLOUDY     3  -7  63 W9        30.20R WCI -12
AUGUSTA        FLURRIES  -5 -10  77 W2        30.18S
CHOTEAU          N/A     -4 -11  71 MISG      30.26R
CONRAD           N/A     -2 -10  68 W7        30.25R WCI -15
FAIRFIELD      FLURRIES  -5 -11  75 NW6       30.24R WCI -17
POWER          FLURRIES  -4  -9  79 NW9       30.24R WCI -21
RAYNESFORD     FLURRIES  -2  -7  80 W8        30.22R WCI -17
ULM            FLURRIES  -1  -6  82 NW5       30.28R
$$

MTZ011-013-016-021-045-047-050-051-070500-
NORTH CENTRAL MONTANA

CITY           SKY/WX    TMP DP  RH WIND       PRES   REMARKS
HAVRE          CLOUDY     0  -7  72 W10       30.34R WCI -16
LEWISTOWN      CLOUDY    -3  -7  82 W9        30.17S WCI -19
N BAR RANCH    MOCLDY    -2 -11  65 W7        30.11R WCI -16
CHINOOK          N/A      0  -8  71 W14       30.34S WCI -19
DENTON           N/A     -4  -8  79 NW13      30.21R WCI -23
GEYSER         MOCLDY    -2  -7  76 W20G28    30.18R WCI -24
GRASS RANGE      N/A     -1  -7  75 W28       30.12F WCI -26
JUDITH GAP     MOCLDY    -7 -11  81 N14       30.09R WCI -27
ROY              N/A     -2  -7  79 MISG      30.19R
STANFORD       MOCLDY    -8 -12  80 SW2       30.14R
$$

MTZ017>020-022>027-061-062-070500-
NORTHEAST MONTANA

CITY           SKY/WX    TMP DP  RH WIND       PRES   REMARKS
GLASGOW        CLOUDY     2  -7  66 W22       30.24R WCI -20
JORDAN           N/A     -1  -8  72 NW16      30.25R WCI -21
SIDNEY         CLOUDY     1  -6  72 NW29G36   30.17R WCI -24
WOLF POINT     CLOUDY     3  -5  69 W15       30.24R WCI -16
PLENTYWOOD       N/A      1  -6  71 W23       30.13R WCI -21
POPLAR           N/A      1  -8  66 W12       30.23R WCI -15
SCOBEY           N/A      1 -10  60 NW14      30.14R WCI -17
$$

MTZ028>42-056>058-070500-
SOUTHCENTRAL AND SOUTHEAST MONTANA

CITY           SKY/WX    TMP DP  RH WIND       PRES   REMARKS
BAKER          CLOUDY     2  -4  76 W20G28    30.12  WCI -19
BILLINGS       CLOUDY     5  -3  69 NE14      30.16R WCI -12
LIVINGSTON     LGT SNOW   3  -3  76 E7        30.06R WCI  -9
MILES CITY     CLEAR      1  -7  68 NW14      30.23R WCI -17
BIG TIMBER     CLOUDY     3  -2  78 NE8       30.11S WCI -10
EKALAKA          N/A     -5 -13  68 W8        30.04R WCI -20
FORSYTH          N/A      1  -6  71 W6        30.25R WCI -10
HARLOWTON      CLOUDY    -1  -7  75 N24       30.08R WCI -25
LAUREL           N/A      7  -5  57 NE9       30.12R WCI  -6
$$

REGIONAL REPORTS...DAKOTAS

CITY           SKY/WX    TMP DP  RH WIND       PRES   REMARKS
WILLISTON      CLOUDY     3  -4  72 NW16G26   30.15R WCI -16
MINOT          LGT SNOW   7   1  76 W33G41    29.98R WCI -17
DICKINSON      CLOUDY     1  -5  75 NW26G32   30.05R HAZE    WCI -23
CROSBY         CLOUDY     5   0  78 NW31G37   30.10S FOG     WCI -19
TIOGA          CLOUDY     5   1  85 NW22G29   30.07R FOG     WCI -16
WATFORD CITY   FLURRIES   1  -4  78 W22       30.13R WCI -21
BISMARCK       CLOUDY     6   2  83 NW22G39   30.05R WCI -15
GRAND FORKS    LGT SNOW  18  13  80 NW26G38   29.68R VSB 1   WCI  -1
FARGO          CLOUDY    16   9  74 W31G39    29.77R WCI  -4
BUFFALO SD       N/A      2  -4  76 NW23      30.01S WCI -21
RAPID CITY     CLOUDY     5  -2  72 N16       30.08R WCI -14
$$

REGIONAL REPORTS...WYOMING/IDAHO/WASHINGTON

CITY           SKY/WX    TMP DP  RH WIND       PRES   REMARKS
GILLETTE       CLOUDY     0  -3  87 NW6       30.06R WCI -12
SHERIDAN       CLOUDY     8   1  73 NW8       30.11R WCI  -4
BUFFALO WY     CLOUDY     6  -1  73 NW6       30.02R WCI  -4
CODY           LGT SNOW   5   1  83 N12       29.99R FOG     WCI -11
YELLOWSTONE LA   N/A      4   1  88 CALM      29.75R
IDAHO FALLS    CLOUDY    15  10  80 N6        29.92R WCI   6
SALMON         CLOUDY     9   7  92 CALM      30.01R
BOISE          CLEAR     18  15  88 W3        30.08R
SPOKANE        PTCLDY    22  12  65 CALM      30.15R
$$

REGIONAL REPORTS...ALBERTA

CITY           SKY/WX    TMP DP  RH WIND       PRES   REMARKS
EDMONTON       FLURRIES  -2 -13  60 NW14      30.44R WCI -21
LETHBRIDGE     MOCLDY    -9 -15  77 W9        30.36R WCI -27
MEDICINE HAT   FLURRIES   0  -6  78 NW8       30.37R WCI -15
WATERTON GATE    N/A    -13 -18  77 CALM        N/A
CARDSTON         N/A     -9 -15  77 W2          N/A
MILK RIVER       N/A     -6 -11  77 NW13G18     N/A  WCI -25
ONEFOUR          N/A     -4  -8  84 NW20        N/A  WCI -27
$$

REGIONAL REPORTS...SASKATCHEWAN

CITY           SKY/WX    TMP DP  RH WIND       PRES   REMARKS
SWIFT CURRENT  CLEAR     -6  -8  92 NW18G24   30.19S WCI -29
REGINA         FLURRIES   3  -2  78 NW24G31   30.15R WCI -20
SASKATOON      MOCLDY     1  -4  78 NW17G23   30.25R WCI -19
CYPRESS HILLS    N/A     -9 -15  77 NW10G22     N/A  WCI -28
VAL MARIE        N/A      0  -6  78 NW21        N/A  WCI -23
ROCKGLEN         N/A     -2  -6  84 NW24G35     N/A  WCI -27
ASSINIBOIA       N/A     -2  -9  71 NW15G21     N/A  WCI -22
$$




USA.gov is the U.S. government's official web portal to all federal, state and local government web resources and services.